Flag for Greenland Weather past 2 weeks in Nuuk, Greenland

Now
57 °F

Passing clouds.


Feels Like: 56 °F
Forecast: 49 / 58 °F
Wind: 6 mph from Northwest

Location: Godthaab / Nuuk

Current Time: Jul 26, 2014 at 4:08:46 PM

Latest Report: Jul 26, 2014 at 2:50 PM


Visibility: N/A

Pressure: 29.86 "Hg

Humidity: 67%

Dew point: 46 °F

Location of NuukLocation

Historic Weather in Nuuk — Graph

°F

Nuuk temperature yesterday

Maximum temperature yesterday: 54 °F (at 12:50 PM)
Minimum temperature yesterday: 46 °F (at 5:50 AM)
Average temperature yesterday: 49 °F

Past Weeks' High & Low Weather Summary

 TemperatureHumidityPressure
High64 °F (Jul 14, 2:50 PM)100% (Jul 13, 12:50 AM)29.98 "Hg (Jul 13, 12:50 AM)
Low37 °F (Jul 13, 2:50 AM)37% (Jul 14, 2:50 PM)29.59 "Hg (Jul 15, 12:50 AM)
Average49 °F74%29.84 "Hg
* Reported Jul 11 2:50 PM — Jul 26 2:50 PM, Nuuk, Weather by CustomWeather, © 2014

Note: Actual official high and low records may vary slightly from our data, if they occured in-between our weather recording intervals... More about our weather records

Advertising

Nuuk weather history for previous 24 hours

 ConditionsComfort  
Time TempWeatherWind HumidityBarometerVisibility
2:50 PM
Jul 26
57 °FPassing clouds.6 mph67%29.86 "HgN/A
1:50 PM57 °FPassing clouds.7 mph67%29.86 "HgN/A
12:50 PM57 °FPassing clouds.5 mph72%29.89 "HgN/A
11:50 AM55 °FPassing clouds.7 mph72%29.89 "HgN/A
10:50 AM52 °FScattered clouds.8 mph82%29.89 "HgN/A
9:50 AM50 °FScattered clouds.8 mph94%29.92 "HgN/A
8:50 AM50 °FScattered clouds.10 mph88%29.92 "HgN/A
7:50 AM48 °FPartly sunny.9 mph94%29.92 "HgN/A
6:50 AM48 °FPartly sunny.8 mph94%29.95 "Hg1 mi
5:50 AM48 °FFog.7 mph94%29.95 "HgN/A
4:50 AM46 °FFog.5 mph100%29.98 "Hg1 mi
3:50 AM46 °FLow clouds.5 mph100%29.98 "HgN/A
2:50 AM48 °FFog.3 mph94%29.98 "HgN/A
1:50 AM48 °FLight rain. Fog.1 mph94%29.98 "Hg2 mi
12:50 AM46 °FDrizzle. Overcast.3 mph100%29.98 "Hg2 mi
11:50 PM
Jul 25
46 °FDrizzle. Broken clouds.7 mph100%29.98 "HgN/A
10:50 PM46 °FDrizzle. Broken clouds.6 mph100%29.98 "HgN/A
9:50 PM48 °FDrizzle. Broken clouds.7 mph94%29.98 "HgN/A
8:50 PM48 °FBroken clouds.7 mph94%29.98 "HgN/A
7:50 PM46 °FDrizzle. Mostly cloudy.6 mph100%29.98 "HgN/A
6:50 PM48 °FMostly cloudy.6 mph94%29.98 "HgN/A
6:20 PM48 °FPartly sunny.6 mph94%29.98 "HgN/A
4:50 PM46 °FFog.8 mph100%29.95 "Hg1 mi
Weather by CustomWeather, © 2014

See weather overviewHow to use our weather pages